Theta_e
316 316 318 320 321 325 330 330 340 341 338 343 340 341 343 339 338 339 340 337 335 337 338 334 331 330 327 326 321 315 316 318 318 323 326 312 306 308 307 310 312 312 316 323 325 325 325 328 328 329 328 327 326 325 324 323 323 323 323 323 322 323 322 321 321 322 323 323 323 323 323 323 322 322 322 320 320 321 321 320 320 319 318 319 322 322 322 321 320 320 319 319 318 317 316 315 314
315 317 320 323 323 329 335 334 341 340 340 342 340 343 341 338 337 342 344 342 340 334 332 328 323 320 318 316 315 316 314 311 307 311 313 305 306 307 308 313 314 313 315 323 326 324 325 327 328 328 328 327 326 324 324 323 322 322 322 322 322 323 322 321 320 321 323 323 323 322 322 322 322 322 321 321 320 320 321 320 319 318 318 319 321 322 321 321 320 320 319 318 317 316 315 315 314
315 318 323 326 326 331 337 336 339 338 341 342 341 343 338 340 342 344 344 339 337 329 327 326 322 316 316 319 316 319 315 309 306 305 307 304 304 306 310 315 316 315 315 323 325 324 324 325 327 328 328 327 326 325 324 323 322 322 321 321 321 322 321 320 321 322 323 323 323 322 322 320 321 321 321 321 320 320 320 319 319 318 318 319 320 321 321 320 320 319 319 318 317 316 315 314 314
317 320 324 328 329 335 340 338 339 339 342 341 342 344 339 343 344 341 335 330 330 327 324 324 320 312 316 319 313 314 310 307 305 303 304 302 303 304 309 316 318 316 315 323 325 325 325 324 325 326 327 326 326 325 323 323 322 321 321 321 321 321 322 320 320 322 322 322 322 322 321 320 320 321 321 320 319 319 318 318 319 318 318 319 319 320 321 320 320 319 318 317 317 316 315 314 313
319 322 322 327 332 336 338 336 337 338 342 341 342 344 340 342 341 335 327 324 326 326 325 324 318 311 312 311 309 310 305 304 304 301 302 302 302 303 310 315 317 317 317 322 325 327 327 327 326 325 326 326 326 324 323 323 322 321 321 321 320 320 321 321 320 320 322 322 321 321 321 320 319 321 321 320 319 318 318 318 318 318 318 318 318 320 320 321 320 318 318 317 317 316 315 314 313
322 322 324 324 327 331 334 336 337 338 341 338 339 342 335 331 331 329 323 322 323 321 322 321 315 311 307 303 305 304 300 302 302 300 301 301 300 303 310 314 317 318 318 321 324 326 326 328 328 327 327 326 325 324 323 323 322 322 321 321 320 319 320 321 320 320 321 321 321 321 320 320 320 320 320 319 319 318 318 318 318 317 317 317 318 319 320 320 321 318 318 318 317 316 315 314 313
322 323 330 329 328 330 334 337 338 339 337 332 336 338 327 321 323 324 321 321 322 317 316 314 311 313 307 302 304 300 299 300 299 300 301 300 299 303 309 312 315 315 316 318 320 321 322 324 324 326 326 324 324 323 323 322 322 321 321 321 320 320 320 320 319 319 320 321 320 320 320 320 319 319 319 319 318 318 317 318 318 318 317 317 317 319 320 320 321 319 318 318 317 316 315 314 313
323 325 329 333 334 332 333 336 335 337 333 324 326 326 321 319 321 323 320 320 319 314 313 311 312 316 309 305 305 300 298 299 299 300 299 298 299 303 307 310 312 311 312 314 315 317 318 320 320 321 322 323 323 322 322 322 321 321 321 320 320 320 319 319 318 318 319 320 319 319 319 319 319 318 318 318 317 317 317 317 318 318 317 317 317 318 319 320 321 319 318 318 317 316 315 314 313
320 322 324 329 332 329 332 333 331 333 325 314 314 316 317 317 320 322 319 316 315 312 309 308 311 315 310 306 305 300 298 299 299 298 297 298 298 301 304 305 306 306 309 311 312 313 314 316 317 318 319 321 321 322 322 321 321 320 320 320 319 319 319 319 318 318 318 319 319 318 318 318 319 318 318 317 317 317 317 316 317 317 317 316 316 317 318 320 321 319 318 318 317 317 315 314 314
319 323 324 327 327 327 331 330 333 329 314 311 313 313 314 315 320 322 319 314 311 312 308 305 309 311 308 306 304 300 297 298 298 297 296 296 296 299 300 301 302 304 305 307 309 309 310 312 314 315 315 317 318 319 320 320 320 320 319 319 319 319 318 318 318 318 318 318 318 318 318 318 318 318 317 317 317 317 317 316 316 317 316 316 316 316 317 319 320 320 318 318 318 317 316 314 314
324 327 324 323 323 325 329 331 335 326 312 314 315 313 313 314 318 317 315 311 310 312 308 306 309 307 305 304 302 298 296 297 297 296 295 295 296 297 297 297 299 300 301 302 304 306 306 308 310 311 312 314 315 316 317 317 318 318 319 319 318 318 318 318 318 318 318 318 317 317 317 317 318 317 317 317 317 317 317 316 316 316 315 315 315 316 316 317 318 319 318 317 318 317 316 314 314
324 328 326 325 325 325 328 330 330 322 318 318 313 311 311 314 316 314 314 311 311 311 307 305 306 307 306 304 300 296 295 297 296 295 294 294 294 294 295 296 296 297 297 299 301 301 302 304 305 307 309 310 311 313 314 314 315 316 317 317 317 317 317 317 317 317 317 317 317 317 317 317 317 317 317 317 317 316 316 315 316 315 315 314 315 315 315 316 317 318 317 317 318 317 316 315 314
322 328 328 325 327 325 323 324 322 318 318 316 311 310 309 314 315 314 314 310 311 309 305 302 302 305 306 303 299 296 294 295 295 294 293 293 293 294 294 294 295 295 295 296 297 297 297 298 300 302 304 304 306 308 309 310 310 312 313 315 315 316 316 316 317 318 318 317 317 316 317 317 317 317 316 316 316 316 316 315 315 315 314 314 314 315 315 316 316 317 317 317 317 317 317 316 314
320 328 327 321 322 322 319 316 316 315 315 313 310 309 308 310 309 309 310 309 309 305 302 300 300 305 304 302 299 296 294 294 294 293 293 293 293 293 293 293 293 293 293 293 293 293 294 294 295 296 298 299 299 300 302 302 303 305 306 310 311 312 314 315 316 317 317 317 316 317 317 317 317 317 317 316 316 316 316 315 315 315 314 314 314 314 315 315 315 316 317 317 316 316 317 316 314
314 329 327 318 318 318 318 313 314 317 315 311 308 309 308 305 305 307 305 307 306 299 300 299 299 303 303 302 298 294 294 294 294 293 293 293 292 293 292 292 292 292 292 292 292 291 292 291 292 292 293 294 294 294 295 296 296 297 298 301 304 305 308 311 312 313 315 316 316 316 316 316 316 316 317 317 316 315 315 315 315 315 314 314 314 314 314 315 315 315 315 316 316 315 316 317 315
318 331 322 315 317 316 318 312 313 316 314 310 305 308 309 304 304 305 300 303 304 297 298 299 298 299 298 297 295 293 293 293 293 293 293 293 292 292 292 292 291 291 291 291 292 291 291 291 290 290 290 290 291 291 292 293 292 293 294 294 295 297 299 304 306 307 311 313 314 314 314 315 315 315 316 316 316 316 315 315 315 315 314 314 314 314 314 314 314 315 315 315 315 315 315 316 316
323 326 317 315 317 316 318 313 312 315 314 311 305 307 312 306 302 300 297 299 301 297 296 296 295 295 294 294 293 293 293 293 293 293 293 292 292 292 291 291 291 291 291 291 291 291 291 291 291 290 290 289 289 290 290 290 290 291 292 291 291 292 293 296 298 300 304 307 309 311 312 312 313 314 315 315 314 315 316 315 314 315 314 314 314 313 313 313 314 314 315 315 314 315 314 315 315
321 318 314 316 319 318 318 315 313 311 310 311 307 307 312 309 302 299 300 298 297 296 295 294 294 293 293 293 293 293 293 293 293 292 292 292 291 291 291 291 291 291 290 290 290 290 291 291 291 291 290 290 290 289 289 289 289 290 290 290 290 290 291 291 292 293 296 299 302 305 306 306 308 310 312 314 314 314 315 315 315 314 314 314 313 313 312 312 313 313 314 314 314 314 314 314 314
321 318 311 320 326 319 314 313 312 309 308 312 308 305 308 309 304 301 304 300 297 298 295 293 294 293 292 292 292 293 292 292 292 292 292 291 291 291 291 291 291 290 290 289 289 289 289 290 290 290 290 290 290 290 289 289 289 289 289 290 290 290 290 290 290 290 291 293 295 298 300 300 302 306 308 310 313 314 314 314 314 314 314 314 313 313 312 311 312 313 313 313 314 314 313 314 314
319 315 310 325 328 316 310 310 311 308 308 312 308 304 304 305 302 302 306 302 299 301 296 294 294 293 293 292 292 292 292 292 291 291 291 291 291 291 291 290 290 290 290 289 289 289 288 289 289 289 289 289 290 289 289 289 288 288 288 289 289 290 290 290 290 290 290 290 291 292 295 296 297 300 303 306 309 311 312 313 313 313 314 314 313 312 312 311 311 312 312 313 313 313 313 313 314
311 311 314 323 317 311 311 309 310 308 307 311 309 305 304 303 301 303 305 303 303 302 297 297 295 293 293 292 291 291 291 291 291 291 291 290 291 291 290 290 290 290 290 289 289 288 288 288 288 288 288 288 288 289 288 288 288 288 288 288 288 289 290 290 290 290 290 289 290 290 291 293 294 295 298 301 303 306 308 310 311 312 312 313 313 312 312 311 310 310 311 312 312 313 313 313 313
309 311 315 316 310 308 312 309 308 308 306 309 309 306 304 302 302 304 304 307 310 305 299 298 294 292 293 291 291 291 290 290 291 291 290 290 290 290 290 290 290 289 289 289 288 288 288 288 287 287 287 287 288 288 288 287 287 287 287 287 288 288 289 290 290 291 290 290 290 290 290 291 291 292 293 295 298 301 303 304 306 308 310 312 312 312 312 311 310 310 310 310 311 312 313 313 313
310 312 311 311 308 307 310 309 308 310 309 310 310 306 303 303 303 303 303 307 308 302 298 296 293 292 291 291 291 291 291 290 290 290 290 290 290 290 290 289 289 289 289 289 289 288 288 287 287 287 287 287 288 287 287 287 287 287 287 287 287 287 288 289 290 291 291 290 290 290 290 291 291 291 291 292 294 296 299 301 302 304 306 309 310 311 311 311 311 310 310 310 310 311 312 313 313
314 313 309 306 306 306 308 307 308 311 311 310 308 304 304 306 303 301 302 303 300 296 294 292 291 291 290 291 291 290 290 290 290 290 290 290 290 290 289 289 289 289 289 289 289 288 288 287 286 287 287 287 287 287 287 287 287 287 287 287 287 287 287 288 289 290 291 291 290 290 290 291 291 291 291 291 292 293 295 297 299 301 302 305 307 309 310 310 311 311 310 309 309 310 311 312 312
315 310 309 307 305 306 306 306 308 310 309 305 305 304 305 304 301 301 301 299 295 294 292 291 290 290 290 292 291 289 289 290 290 290 290 290 290 289 289 288 288 288 288 288 288 288 287 287 286 287 287 287 287 287 287 287 287 287 287 287 287 287 287 287 289 290 291 291 290 290 290 290 291 291 291 291 291 291 292 294 296 298 300 301 303 306 308 309 309 310 311 310 309 310 310 311 311
313 311 313 308 306 308 307 306 307 307 306 303 304 306 304 300 300 303 300 296 294 293 292 291 291 291 291 292 290 289 289 289 290 290 290 290 290 289 287 287 286 286 287 287 287 287 287 286 286 287 287 287 287 287 287 287 287 287 287 287 287 287 287 287 288 289 290 291 290 290 290 290 290 290 290 290 290 290 291 292 293 295 297 300 302 303 305 307 309 309 309 310 309 309 309 310 311
312 313 313 308 307 307 306 306 306 305 305 303 305 306 303 299 300 304 299 294 294 292 292 291 291 292 291 291 290 289 289 289 290 290 289 289 288 288 286 286 286 286 286 286 286 286 286 286 286 287 287 287 287 287 287 287 287 287 287 287 287 287 287 287 287 288 290 290 291 290 290 290 290 290 290 290 290 290 290 291 291 293 294 296 300 303 303 305 308 308 308 308 309 309 309 309 310
311 311 309 309 309 305 304 307 305 304 304 304 305 304 301 299 301 305 299 294 294 292 292 291 291 291 290 291 290 288 288 289 290 289 288 287 286 286 286 285 285 286 286 286 286 286 286 286 286 286 286 286 286 286 286 286 286 287 287 287 287 287 287 287 287 288 289 290 291 291 290 290 290 290 290 290 289 289 289 290 290 291 293 294 296 300 302 304 306 308 308 308 308 308 309 309 309
310 310 309 312 311 306 302 305 306 303 304 304 304 303 303 303 303 302 297 294 293 292 291 291 290 290 290 290 290 289 288 288 288 287 286 286 285 285 285 285 285 285 285 286 285 285 286 286 286 285 285 285 285 286 286 286 286 286 287 286 287 286 286 287 287 288 289 289 290 291 291 290 290 289 289 289 289 289 289 289 290 290 291 292 293 296 298 301 305 307 308 308 308 307 307 308 308
308 306 310 314 311 308 302 302 306 303 303 305 303 302 304 308 306 300 296 294 293 292 291 290 290 290 290 290 291 290 288 287 287 286 286 285 285 285 285 285 285 285 285 285 285 285 285 286 285 285 285 285 285 286 286 286 286 286 286 286 286 286 286 287 287 287 288 289 290 290 290 290 290 289 289 289 288 288 289 289 289 289 289 290 291 293 294 297 301 305 307 308 307 306 306 307 308
308 307 311 309 305 311 308 302 306 303 302 304 301 301 302 305 305 300 295 294 292 292 290 289 290 290 290 290 290 289 287 286 286 286 286 285 285 285 285 285 285 285 285 285 285 285 285 285 285 285 285 285 285 286 286 286 286 286 286 286 286 286 286 287 287 287 288 289 290 290 290 290 289 289 289 289 288 288 288 289 289 289 289 289 289 291 292 293 295 300 305 307 307 306 305 305 306
310 306 310 307 302 309 309 303 304 300 300 302 301 302 303 302 302 299 295 294 292 291 290 290 290 290 290 290 288 288 286 286 286 286 285 285 285 285 285 285 285 285 284 285 285 284 285 285 285 285 285 285 285 286 286 286 286 286 286 286 286 286 286 286 286 287 287 288 289 289 289 289 289 289 289 289 288 288 288 288 289 289 289 289 288 289 290 292 293 295 299 304 307 306 305 305 305
309 302 303 307 304 306 306 304 303 298 298 302 302 301 302 301 300 298 295 293 292 290 290 289 290 290 289 289 288 287 286 286 285 285 285 285 285 285 284 284 284 284 284 284 284 284 284 284 285 285 285 285 284 285 286 286 286 286 286 286 286 286 286 286 286 286 287 287 288 288 288 288 288 288 288 288 288 288 288 288 289 289 289 288 288 288 289 291 293 294 296 300 305 306 305 305 305
306 303 303 306 306 305 306 306 303 300 299 301 301 299 300 300 297 297 295 293 291 290 290 289 289 289 289 288 287 286 286 286 286 285 285 285 284 284 284 284 284 284 284 284 284 284 284 284 284 284 284 284 284 285 286 286 286 286 286 286 286 286 286 286 286 286 287 287 287 287 287 287 287 287 287 288 287 288 288 288 288 289 289 289 288 288 289 291 293 294 295 297 301 305 305 305 305
301 301 302 304 305 306 306 306 303 301 299 299 299 299 299 297 294 293 293 292 291 290 289 289 289 289 288 287 286 286 286 286 285 285 284 284 284 284 284 284 284 284 284 283 283 284 284 283 283 284 284 283 284 285 285 285 285 285 285 285 285 285 285 285 285 286 286 287 287 287 287 287 287 287 287 287 287 287 287 288 288 288 289 288 288 288 289 291 293 293 294 295 296 300 304 305 305
300 300 301 303 304 304 304 305 303 300 299 299 299 299 297 294 292 291 291 290 290 290 289 289 289 289 288 287 287 287 286 285 285 284 284 284 284 284 284 284 284 283 283 283 283 283 283 283 283 283 283 283 284 285 285 285 284 284 284 284 284 284 284 284 285 285 285 286 286 286 286 287 287 286 286 286 286 287 287 287 287 288 288 288 288 288 289 291 292 292 292 293 293 296 299 303 304
300 301 303 305 303 301 301 302 302 300 301 300 299 298 295 292 292 291 290 290 290 289 289 288 288 287 287 287 287 286 286 285 284 284 284 284 284 284 283 283 283 283 283 283 282 282 282 282 283 283 283 283 284 285 284 284 284 284 284 283 284 284 284 284 284 285 285 285 285 285 286 286 286 286 286 286 286 286 286 287 287 287 287 288 288 288 289 290 291 290 290 291 293 295 296 299 303
300 302 303 304 302 299 299 300 300 299 300 298 298 298 293 291 292 291 290 290 290 288 287 287 286 286 286 286 286 286 285 285 284 284 284 284 283 283 283 283 283 283 282 282 282 282 282 282 282 283 283 283 284 285 284 284 284 283 283 283 283 283 283 284 284 284 284 285 285 285 286 286 286 286 285 285 285 285 286 286 286 286 287 287 287 288 289 290 290 289 289 289 290 293 295 296 299
301 301 301 302 301 299 299 301 301 299 297 297 299 297 293 291 291 291 290 289 288 287 286 286 286 286 286 286 286 285 285 284 284 283 284 283 283 283 283 282 282 282 282 281 281 281 282 282 282 282 282 283 284 284 284 284 283 283 283 283 283 283 283 283 283 283 284 284 285 285 285 285 285 285 285 285 285 285 285 285 285 286 286 286 287 288 289 290 289 288 288 288 289 292 294 294 296
301 301 300 302 301 299 299 300 300 297 297 297 298 296 293 292 291 290 290 289 288 287 287 286 286 286 286 286 286 285 285 284 284 283 283 283 283 282 282 282 282 281 281 281 281 281 281 281 282 282 282 283 283 283 283 283 283 283 282 282 282 282 282 283 283 283 283 284 284 284 284 284 284 284 284 284 284 285 285 285 285 286 286 286 287 288 289 289 289 288 288 289 289 291 292 293 293
301 300 300 301 300 299 298 298 296 296 298 298 296 296 295 293 292 290 290 288 287 287 286 286 286 286 286 285 285 285 285 284 283 283 283 282 282 282 282 282 281 281 281 281 281 281 281 281 281 281 282 282 282 282 282 282 283 283 282 282 282 282 282 282 282 283 283 283 282 282 282 283 282 283 283 283 283 284 284 284 284 285 285 285 286 287 288 288 288 288 289 289 289 290 291 292 292
299 301 302 300 299 300 298 297 295 295 298 298 296 298 298 294 292 291 290 289 288 287 286 285 285 285 285 285 284 285 284 284 283 282 282 282 282 282 281 281 281 281 280 280 280 280 280 279 279 279 280 280 281 281 281 281 282 282 282 281 281 281 281 282 282 282 282 281 281 281 281 281 281 281 281 281 282 282 283 284 284 284 285 285 286 286 287 287 287 288 289 289 288 289 290 292 292
299 301 303 300 299 299 297 296 296 296 297 297 296 297 298 294 292 292 291 289 288 287 286 285 284 284 284 284 284 284 283 283 283 282 282 281 281 281 281 280 280 280 280 280 279 279 279 279 278 278 278 279 279 280 280 280 281 282 281 280 280 281 281 281 282 281 281 280 280 279 279 279 279 279 279 279 280 281 282 283 284 284 285 285 285 286 286 286 287 288 288 289 289 289 290 292 292
300 301 300 299 299 297 297 296 295 296 296 298 298 295 295 296 294 293 291 289 287 286 285 285 284 284 284 284 284 283 283 282 282 281 281 281 281 280 280 280 280 280 280 279 279 278 278 278 278 278 277 277 278 279 279 279 280 280 280 279 279 280 281 281 281 281 280 280 279 278 278 277 277 277 277 278 278 279 280 282 283 283 283 284 284 285 286 286 287 288 288 289 289 289 290 291 292
300 301 297 297 298 297 297 295 295 296 295 298 300 295 295 296 294 292 291 289 288 286 285 285 285 284 284 284 284 283 282 282 281 281 281 281 280 280 280 280 280 280 279 278 278 278 278 278 277 277 277 277 278 278 278 278 278 278 278 279 279 280 280 280 280 280 280 279 278 278 277 276 276 276 276 276 277 277 279 280 281 282 282 283 283 284 285 286 287 288 288 288 289 289 290 290 291
299 300 297 297 298 297 296 295 295 296 295 297 298 294 295 296 294 292 292 291 289 286 285 285 285 284 284 284 284 283 282 281 281 281 281 280 280 279 279 279 280 279 279 278 278 278 278 277 277 277 276 277 277 277 277 277 277 278 278 278 279 280 280 280 280 280 279 278 277 277 276 276 276 275 276 276 277 277 278 279 280 281 281 282 283 284 285 286 287 288 288 288 288 289 289 290 291
299 300 298 296 296 297 297 295 297 296 295 299 297 293 294 295 295 294 292 291 288 285 285 284 284 284 283 283 283 283 281 281 281 280 280 280 279 279 279 279 279 279 278 278 278 278 277 277 277 276 276 276 277 277 276 276 277 277 277 277 277 278 278 279 280 279 278 277 276 276 275 275 275 275 275 276 277 277 278 279 279 280 280 281 282 284 285 286 287 287 287 287 288 288 289 289 290
299 299 297 296 296 296 295 296 299 297 295 297 295 292 293 294 296 293 288 287 286 285 284 284 284 283 283 283 283 282 281 281 281 280 280 279 279 279 279 279 279 278 278 278 278 277 277 277 277 276 276 276 276 276 276 276 276 276 275 275 276 277 278 279 279 278 277 276 276 275 275 275 275 275 275 276 277 278 278 278 278 278 278 280 283 284 285 285 285 285 286 287 287 288 288 288 289
298 297 296 297 297 296 295 294 296 296 294 295 294 293 294 295 294 289 285 285 285 285 285 283 283 283 282 282 282 282 281 281 280 280 279 279 279 279 279 279 278 278 278 278 277 277 277 277 276 276 276 276 276 275 275 275 275 275 274 274 275 277 278 278 278 277 276 276 275 275 275 274 274 274 275 277 277 278 277 277 276 276 277 279 281 283 284 283 283 285 286 286 286 287 287 288 289
297 297 296 297 296 295 295 293 294 295 294 294 293 293 295 296 292 287 284 285 285 285 285 284 283 282 282 281 281 281 281 280 280 280 279 279 279 279 279 279 278 278 278 277 277 277 277 277 276 276 276 275 275 275 275 275 275 274 274 274 275 276 277 278 277 276 276 275 275 274 274 274 274 275 276 277 277 277 276 276 276 276 277 278 279 281 282 283 283 284 285 286 286 286 286 287 288
297 296 296 297 296 295 294 293 294 294 294 294 293 295 299 298 291 286 285 285 285 285 284 284 283 282 281 281 281 281 280 280 280 280 279 279 279 279 279 279 278 278 277 277 277 277 277 276 276 276 275 275 274 274 274 274 274 273 273 274 274 275 277 277 276 276 275 274 274 274 274 274 274 275 276 276 276 275 275 275 275 275 276 278 279 281 282 283 283 284 285 285 286 286 286 287 288
297 295 297 298 296 296 295 294 294 294 293 295 295 297 297 293 288 286 285 285 285 285 284 283 283 282 282 281 281 281 280 280 280 280 279 279 279 279 279 278 278 278 277 277 277 277 276 276 276 275 275 274 274 274 274 273 273 273 273 273 273 273 274 274 274 274 273 273 273 273 273 273 273 274 275 275 275 275 275 274 275 275 277 278 280 281 282 283 283 284 284 285 285 286 287 287 288
297 296 298 296 293 294 296 295 294 294 294 295 296 296 293 290 288 286 285 285 285 285 284 283 282 282 281 281 281 280 280 280 280 280 279 279 279 279 279 278 278 277 277 277 277 277 276 276 275 274 274 274 273 273 273 273 272 272 271 271 271 271 271 272 272 272 272 272 272 272 272 272 273 274 274 274 274 274 274 274 275 277 278 280 280 281 282 283 283 284 284 285 285 286 286 287 287
297 298 297 294 293 294 296 295 294 294 294 294 294 295 293 293 292 287 285 286 285 285 284 283 282 281 281 281 281 280 280 280 280 280 279 279 279 279 279 278 278 277 277 277 277 276 276 275 274 274 274 273 273 273 273 272 271 271 270 270 270 271 271 271 270 270 270 270 271 271 271 272 273 273 273 273 274 274 275 276 277 278 279 280 281 282 282 283 283 284 284 285 285 286 286 287 287
296 296 294 294 295 295 295 294 292 293 294 293 293 293 293 294 293 288 286 285 285 284 284 282 281 281 281 281 280 280 280 280 280 279 279 279 279 279 279 278 278 278 277 277 277 276 275 275 274 273 273 273 273 272 272 271 270 270 270 270 270 270 269 269 269 269 269 270 270 271 271 272 272 272 272 273 274 275 275 276 276 277 278 280 281 282 282 283 283 284 284 285 285 286 286 287 287
296 295 294 295 295 293 293 293 293 293 293 293 293 292 292 293 290 287 285 285 284 284 283 281 281 281 281 281 280 280 280 280 279 279 279 279 279 279 278 278 278 278 277 277 276 275 275 274 273 273 273 272 272 272 271 270 270 270 270 270 269 269 268 268 269 269 269 270 270 270 270 270 270 271 271 272 272 273 274 274 275 276 279 280 281 282 283 283 283 284 284 285 285 286 286 286 286
295 295 295 296 295 293 292 292 294 293 292 292 292 291 291 290 287 285 286 286 284 283 282 281 281 281 281 280 280 280 280 280 279 279 279 279 279 279 278 278 278 278 277 276 276 275 274 273 273 272 272 272 272 271 270 269 269 270 270 269 268 268 268 268 269 269 269 269 269 269 268 268 269 269 270 271 272 272 272 273 274 276 278 279 280 282 283 283 283 284 284 284 285 285 285 286 286
294 294 293 293 293 292 290 290 291 292 291 291 290 290 291 289 286 285 287 286 284 282 282 281 281 281 280 280 280 280 280 280 280 279 279 279 279 278 278 278 278 277 277 276 275 274 273 273 272 272 272 272 271 270 269 269 269 269 269 269 268 268 268 268 268 268 268 268 268 268 268 268 268 269 270 271 271 271 272 272 274 276 278 279 280 281 282 283 284 284 284 284 284 285 285 286 286
Wind_Speed
3 3 2 2 5 5 1 1 1 2 0 2 1 1 4 2 2 1 2 2 1 3 3 2 3 3 3 5 8 7 5 3 2 1 4 7 16 15 26 26 21 16 9 6 4 5 9 12 10 10 9 8 7 6 6 5 4 5 5 6 6 6 6 6 7 7 8 9 9 8 7 6 7 7 8 8 8 8 9 9 9 9 9 10 12 12 13 12 11 10 9 8 7 7 6 2 2
1 1 1 4 5 5 2 2 1 2 1 3 2 3 4 2 0 4 6 5 3 3 2 6 7 8 8 10 9 7 7 3 2 2 2 18 22 17 28 23 20 16 8 3 5 5 9 11 11 11 10 9 8 7 6 5 5 5 5 6 6 7 6 5 6 8 9 10 10 9 8 7 7 8 8 8 8 8 9 9 9 9 9 11 12 11 12 13 12 12 11 9 7 7 6 4 2
0 2 3 5 3 2 1 2 0 1 1 4 3 3 2 1 4 7 7 4 3 5 3 6 8 6 5 7 5 3 3 1 5 5 4 22 21 20 27 19 19 15 7 1 5 5 7 9 11 12 10 10 9 8 7 6 6 6 6 6 7 8 6 5 7 8 9 10 9 9 8 7 7 8 9 9 9 9 9 9 10 10 10 11 12 11 12 12 13 13 12 10 9 8 6 6 4
1 3 4 4 2 2 2 1 1 3 3 3 2 4 2 3 6 5 4 4 4 4 2 4 4 3 3 5 5 3 3 2 8 9 5 18 19 20 22 18 18 13 7 0 5 7 7 8 10 10 11 11 10 9 7 7 7 6 7 7 7 9 8 7 9 9 9 9 9 9 9 7 7 10 10 10 9 9 9 9 11 10 10 12 12 13 12 12 13 13 12 11 10 10 8 8 7
1 3 4 3 2 0 2 0 1 2 4 3 1 5 4 5 5 3 3 3 2 4 2 3 3 2 5 5 3 2 4 4 7 14 10 16 21 21 20 19 17 13 11 3 4 7 9 10 12 11 12 13 12 10 8 8 7 7 7 7 7 8 9 8 9 9 9 10 10 10 10 8 8 10 10 10 10 9 9 10 11 11 11 12 12 14 13 12 13 13 13 12 12 12 11 10 8
1 3 2 2 1 0 1 1 1 2 4 4 2 5 4 3 2 1 2 3 4 6 4 4 3 3 6 3 4 4 5 5 6 14 15 17 22 22 21 20 18 18 18 9 2 3 6 9 11 12 12 11 10 9 7 7 6 7 6 7 7 7 9 8 9 10 10 10 10 10 11 10 9 10 9 9 9 9 10 10 11 11 12 12 13 14 13 13 13 13 14 13 13 12 12 11 10
2 2 2 2 0 2 2 3 3 3 3 4 3 4 4 2 2 3 3 2 3 7 6 5 4 6 5 1 4 6 13 12 6 12 15 16 22 24 22 21 21 22 22 17 11 7 5 5 5 7 6 5 4 6 6 6 6 6 6 7 7 7 9 9 10 12 13 11 11 11 11 11 10 10 9 8 9 10 10 11 12 12 12 13 14 14 12 13 14 14 15 14 14 13 12 13 12
3 2 1 3 0 2 2 3 3 3 3 2 3 4 4 2 2 4 2 1 2 4 6 4 3 5 2 3 4 5 16 16 10 13 15 19 24 26 24 23 25 26 25 22 19 15 11 9 11 12 5 1 3 5 5 5 5 5 6 7 7 7 8 9 9 12 14 12 11 11 11 13 12 10 10 9 10 11 11 11 13 13 13 13 14 15 12 12 15 15 15 14 14 15 13 13 12
3 2 0 2 1 1 1 3 3 3 3 3 2 3 3 2 1 4 1 2 2 3 5 6 3 4 3 5 4 2 13 15 13 15 18 22 26 27 27 27 28 28 27 25 23 22 19 16 15 17 15 7 4 3 4 5 4 6 7 7 6 7 8 9 9 10 12 13 13 12 12 13 13 13 12 10 11 12 12 12 13 13 12 13 14 15 12 11 15 15 15 14 15 16 15 15 13
3 2 1 1 0 2 3 3 3 3 3 3 3 4 3 2 2 4 3 3 3 2 2 6 3 5 4 4 2 2 9 13 15 18 20 23 26 28 29 30 30 29 29 28 26 25 24 22 21 21 21 18 14 9 7 6 4 5 6 6 6 6 8 8 9 10 12 13 13 13 13 12 13 14 13 12 12 12 13 13 13 13 13 13 14 15 14 12 16 16 15 15 15 16 16 16 16
2 3 2 2 1 2 4 3 4 3 3 4 3 4 1 1 3 4 4 2 2 3 2 5 5 4 4 4 0 3 9 14 17 18 18 22 26 29 31 32 31 31 32 31 28 28 28 26 25 25 24 23 20 17 14 10 6 5 5 6 5 6 7 8 10 11 12 13 13 13 13 12 13 14 14 14 14 13 13 13 13 14 13 14 15 16 16 15 16 16 15 15 15 16 17 16 17
2 2 3 2 2 3 3 3 5 4 5 4 1 4 1 3 4 2 2 3 2 4 3 5 2 4 4 3 1 3 11 15 15 16 18 22 26 29 31 32 32 33 33 32 30 30 31 29 29 28 25 25 24 20 19 17 15 11 9 9 8 7 6 8 10 11 13 14 15 14 13 12 13 14 15 15 15 15 14 14 14 15 14 14 15 17 16 16 16 15 14 15 15 17 18 16 16
2 2 4 1 3 3 3 3 4 2 4 2 2 4 2 4 3 4 4 3 1 2 2 4 2 4 4 2 1 3 10 13 13 15 20 24 26 28 31 33 34 35 35 34 34 34 34 33 32 30 28 27 26 24 22 22 20 18 16 14 14 12 7 8 9 10 12 12 15 15 14 14 14 13 13 16 16 16 16 15 15 15 15 14 15 17 17 16 16 15 14 15 16 17 17 17 17
2 3 4 2 1 1 3 1 2 3 3 4 2 3 3 3 2 4 4 2 2 2 1 4 1 3 2 2 3 3 7 11 11 14 20 25 27 30 32 34 35 36 37 37 37 37 36 36 35 34 32 30 30 29 28 28 26 24 22 19 18 17 13 10 10 11 11 10 13 14 15 16 17 15 13 14 17 18 17 16 16 16 16 15 16 17 17 18 17 17 16 17 18 18 18 17 18
2 2 4 1 2 2 2 1 1 4 4 4 1 1 4 3 1 2 3 1 1 2 2 5 5 1 1 3 2 2 6 9 11 14 20 25 29 32 32 34 36 37 37 38 38 38 38 38 37 37 36 34 34 34 32 31 31 30 28 26 24 23 19 15 15 14 13 12 13 13 14 15 17 18 17 15 16 18 18 18 17 18 17 16 17 17 18 18 19 19 18 18 19 18 19 17 18
2 3 4 1 2 2 2 2 1 2 5 4 1 2 5 3 3 3 3 1 1 5 3 4 5 2 2 4 5 4 8 11 12 17 22 25 28 31 32 33 34 36 37 37 37 37 37 38 38 38 38 38 36 36 35 33 33 32 31 32 31 29 26 22 21 19 16 15 15 16 16 16 16 18 19 17 16 16 18 19 19 19 19 18 17 17 18 19 20 20 19 18 19 19 19 17 17
3 4 3 2 1 2 3 3 2 2 4 4 3 1 4 2 3 3 2 7 5 5 6 4 5 6 6 6 9 11 14 14 16 21 25 26 27 29 31 32 32 34 35 36 36 35 35 36 37 37 37 38 37 36 36 35 34 34 33 33 34 32 30 28 26 24 21 18 17 17 18 18 18 18 18 18 18 16 17 19 20 21 21 20 19 18 19 20 20 20 20 20 19 20 20 17 17
4 3 2 2 3 4 4 5 5 3 2 4 3 2 6 2 1 3 4 8 6 6 7 5 8 8 8 12 15 16 18 19 21 25 25 24 24 25 26 27 29 30 32 34 35 34 34 34 34 35 35 35 35 35 36 36 35 34 33 33 34 34 32 30 30 28 25 23 20 19 20 21 21 19 18 18 19 19 17 19 20 22 22 22 22 20 20 21 21 21 22 22 20 20 21 19 18
3 3 1 3 5 5 5 6 6 3 3 4 1 2 4 4 5 4 3 1 3 7 5 4 8 7 8 12 16 18 21 21 23 25 23 21 21 21 21 23 27 27 29 32 34 34 34 33 33 34 34 33 34 34 35 36 36 35 34 33 32 32 32 31 32 31 28 25 23 21 21 23 23 21 20 19 19 19 19 19 20 23 24 24 24 23 21 21 22 22 22 23 22 21 20 20 20
2 3 1 6 6 5 5 5 6 5 4 4 2 2 2 3 5 4 4 5 3 5 5 4 6 6 6 8 14 18 20 21 21 24 22 20 20 20 20 21 24 24 26 28 31 33 33 34 34 33 33 32 33 33 34 36 36 36 35 34 32 31 31 32 32 31 30 28 25 23 21 21 23 22 22 21 20 19 20 21 22 23 24 25 25 25 23 22 23 24 25 24 22 21 23 22 21
1 3 3 6 4 3 6 6 6 5 5 5 4 3 2 3 4 4 7 6 3 6 8 8 11 11 9 7 10 15 17 19 19 22 21 20 20 21 21 21 21 22 22 26 30 31 32 33 34 34 32 32 31 31 33 34 34 35 36 36 36 34 33 31 31 31 31 30 26 23 21 19 20 21 22 22 22 21 20 21 22 24 25 26 27 27 27 24 23 25 27 26 23 21 24 26 23
0 2 4 6 4 2 6 5 5 3 4 4 5 4 3 3 2 5 9 7 6 6 8 10 12 12 11 10 10 13 15 16 17 19 20 20 20 21 22 22 22 22 22 25 28 29 30 32 34 35 32 31 30 29 30 31 32 33 34 35 36 36 34 32 31 31 31 30 27 24 23 20 19 20 21 21 21 22 22 22 22 23 24 26 28 29 30 28 25 26 28 29 27 23 22 26 26
1 4 3 4 4 3 4 3 5 5 6 4 5 4 4 4 1 4 8 6 4 2 7 11 11 13 14 14 12 11 11 12 15 17 19 20 20 20 21 23 24 23 22 22 25 28 29 32 35 34 32 31 30 29 29 30 30 30 31 32 34 36 34 31 30 30 30 29 28 25 24 22 20 19 20 20 21 21 22 23 23 23 23 24 26 27 30 32 30 28 28 29 30 26 22 25 28
2 2 3 3 3 3 2 1 2 5 6 5 4 3 4 4 2 2 3 3 1 4 10 13 13 15 16 13 10 10 11 12 14 16 19 20 20 21 21 23 25 25 24 22 23 26 29 33 35 32 29 29 29 28 29 29 29 29 31 31 33 34 32 30 28 28 29 29 28 26 25 23 22 21 20 20 20 21 21 22 23 24 23 24 25 26 27 30 32 32 31 30 31 31 26 25 29
3 0 4 2 1 3 4 4 1 2 3 2 5 3 2 2 2 3 3 2 5 7 10 12 12 13 12 10 9 9 10 12 15 16 18 19 19 22 25 26 27 29 28 25 24 26 30 32 32 30 27 26 26 26 26 28 29 30 31 31 32 33 32 29 26 25 25 28 29 28 26 24 23 23 22 20 20 21 22 22 23 24 25 24 25 26 28 27 29 32 35 34 33 34 31 27 29
1 1 3 2 4 5 4 4 2 2 2 2 3 2 3 2 0 1 4 6 6 8 10 9 11 10 9 8 8 9 9 11 14 15 17 18 19 23 28 29 30 30 29 27 26 26 29 30 29 27 25 24 23 24 25 27 28 29 30 30 31 31 31 29 26 24 23 25 27 26 25 23 22 21 22 22 21 22 22 23 23 24 25 25 26 26 27 27 29 30 33 37 38 37 35 31 31
1 2 2 2 5 5 3 4 4 3 2 4 4 2 4 4 1 2 3 7 7 10 9 7 10 9 8 7 7 10 11 11 14 15 18 21 23 24 27 29 30 29 28 27 26 26 26 27 26 26 25 24 24 25 26 27 28 28 28 28 29 30 30 29 27 25 22 23 25 25 23 21 20 19 19 21 22 23 23 23 24 25 26 26 26 26 26 26 29 31 32 34 38 41 40 36 34
2 2 2 4 6 4 6 7 6 5 2 3 3 1 2 3 1 4 5 8 9 11 9 7 10 8 8 8 7 9 10 12 17 19 19 21 23 24 26 27 28 28 27 26 26 25 25 25 25 26 27 26 26 27 27 27 27 27 27 27 28 28 29 29 28 26 24 23 24 24 23 21 20 20 19 19 20 22 23 23 23 24 25 26 25 26 26 26 27 31 34 34 35 39 42 41 37
3 5 1 6 10 5 5 5 5 4 2 2 4 0 2 2 4 4 6 9 8 10 9 7 9 7 7 8 6 7 10 15 20 21 21 22 24 25 25 25 27 27 25 24 25 26 25 24 25 27 28 28 28 27 26 26 26 25 25 26 26 27 27 28 28 26 25 24 23 23 23 22 21 22 22 21 20 20 21 22 23 23 25 26 25 26 26 25 26 28 32 35 37 35 38 41 39
3 6 3 4 9 5 2 4 6 4 1 1 1 4 4 6 7 3 7 11 10 10 8 7 7 7 7 7 6 6 10 16 18 20 22 23 23 24 24 22 23 23 22 21 23 25 23 22 24 26 26 27 27 25 25 24 24 24 24 25 25 26 26 27 28 26 25 24 23 22 23 23 23 23 23 22 21 20 20 20 22 22 24 26 26 27 27 26 26 27 29 32 36 35 36 39 41
3 5 3 3 4 6 6 6 6 5 1 3 5 5 5 5 9 4 7 11 12 11 8 8 7 7 6 6 7 6 10 15 17 19 21 21 21 22 21 20 20 21 21 20 21 22 21 20 22 25 25 25 26 25 25 24 24 23 23 24 25 25 25 26 28 27 25 23 23 24 25 25 23 22 22 23 23 21 20 20 20 21 23 25 27 28 29 28 26 26 28 29 34 34 35 36 39
4 4 4 3 1 6 10 6 3 2 3 5 6 6 5 5 7 3 6 8 10 11 8 8 8 7 7 6 8 7 8 14 18 18 18 19 20 20 19 20 19 20 22 20 20 22 21 20 22 24 24 25 26 25 24 23 23 23 23 24 25 25 25 26 27 28 27 24 23 24 24 23 21 21 22 23 25 24 22 21 20 20 21 24 27 27 28 29 27 25 26 27 31 34 35 34 36
4 3 3 5 2 4 8 4 1 2 4 6 5 3 6 6 6 4 3 8 10 11 9 8 8 7 7 6 7 7 6 9 13 15 16 16 17 18 18 21 20 20 23 21 21 23 21 22 22 22 23 25 27 25 22 21 21 21 22 22 23 23 24 25 27 28 26 22 21 21 20 20 20 20 22 23 25 25 24 23 20 20 21 23 26 27 27 28 27 25 26 26 27 32 35 35 35
4 3 2 4 3 4 6 5 4 6 5 5 4 2 7 8 8 8 1 9 11 12 10 9 8 6 7 7 6 7 6 5 7 10 14 15 15 17 18 21 20 20 24 22 22 23 21 23 24 22 23 27 28 24 19 18 19 20 21 22 22 22 22 23 25 26 23 20 21 21 21 21 21 21 22 24 24 25 25 24 22 20 21 23 25 26 26 27 25 23 24 24 24 28 33 35 36
4 4 3 4 3 3 5 7 4 6 4 4 2 3 8 9 10 10 1 11 12 12 10 8 8 7 7 7 6 5 5 5 5 8 11 14 16 17 19 21 20 21 24 23 23 23 22 25 25 23 25 28 27 20 17 18 20 21 22 23 24 24 23 24 25 26 25 24 26 26 25 25 24 23 23 24 25 24 24 24 23 21 20 22 24 25 25 24 23 22 22 23 23 24 28 33 37
5 5 3 5 6 4 7 8 4 5 5 3 1 7 8 9 10 9 4 11 13 11 10 7 7 7 6 6 4 4 4 3 4 7 10 14 17 19 21 22 21 22 24 25 25 25 25 28 28 25 27 29 24 18 18 20 21 22 22 22 23 23 23 25 26 26 27 29 30 29 28 26 25 24 23 23 24 24 23 23 23 21 20 21 22 23 24 22 20 21 21 22 22 23 23 26 32
1 3 3 5 6 6 6 8 6 4 4 2 2 6 7 8 9 7 6 11 13 12 11 8 7 6 5 5 4 4 4 2 3 7 10 15 19 21 23 23 22 23 24 26 27 28 29 30 29 26 29 29 22 18 21 22 22 22 22 22 22 23 24 25 25 26 28 29 29 28 26 24 23 22 22 22 23 24 24 23 23 22 20 20 21 22 23 21 19 20 22 22 20 20 21 21 24
2 3 4 5 5 7 9 9 6 5 4 5 3 5 6 7 7 5 7 11 11 10 11 9 7 6 4 4 4 3 2 0 2 7 11 16 20 23 24 23 23 23 25 26 28 29 30 30 28 28 32 29 22 22 25 25 25 24 23 24 24 25 25 25 26 26 27 27 26 25 24 22 22 22 22 23 23 24 24 25 24 24 22 21 21 21 22 21 20 21 22 22 21 19 19 20 20
2 2 3 5 4 7 9 7 3 3 3 7 4 7 4 6 5 5 7 10 9 8 10 9 6 5 3 3 3 2 2 2 3 7 13 17 21 23 24 23 23 23 24 26 27 29 29 29 28 31 33 28 24 27 29 29 29 25 24 26 27 27 27 26 27 28 28 26 23 23 23 23 24 23 23 23 23 24 24 26 25 25 24 23 23 22 21 21 21 22 22 22 21 19 19 19 19
2 3 3 5 4 3 6 6 5 3 3 5 3 7 3 3 5 6 6 7 8 8 8 7 6 5 4 2 1 2 3 4 6 8 13 18 21 23 23 23 23 23 23 25 28 29 28 29 31 33 33 30 29 31 31 32 31 27 25 27 29 29 29 28 28 28 27 24 20 20 21 22 23 23 23 23 24 24 24 25 26 26 25 24 24 22 22 22 23 24 23 21 19 18 18 19 18
5 4 4 5 6 4 6 9 11 9 3 2 3 4 1 1 3 4 4 5 6 6 6 7 5 5 4 4 4 4 5 5 7 9 12 16 20 21 21 23 24 22 22 25 27 27 27 30 33 34 34 33 33 33 33 34 33 29 27 28 29 29 29 29 29 26 23 20 18 18 19 20 21 22 23 23 24 25 25 25 27 29 28 26 25 23 23 24 24 24 22 20 21 19 18 19 19
6 5 6 6 8 7 9 11 11 8 5 1 4 3 2 2 3 3 3 3 4 3 5 7 5 4 5 5 4 5 6 6 7 9 11 15 18 20 21 24 23 20 21 23 25 26 29 30 33 34 34 33 33 33 33 34 33 29 26 26 27 27 26 27 27 24 20 18 18 18 20 21 21 23 24 24 25 26 26 26 27 29 29 27 26 25 25 25 25 25 23 22 23 21 18 18 20
6 4 5 5 7 7 11 13 8 4 5 4 3 1 4 2 4 5 4 3 4 3 4 5 4 4 4 4 4 5 6 6 7 9 11 14 17 19 21 24 23 18 19 23 25 28 29 30 32 33 34 34 33 33 32 33 32 28 26 27 29 29 28 27 26 23 20 19 18 19 21 22 23 24 25 26 26 26 26 27 27 28 28 27 26 25 26 27 26 25 23 22 22 21 20 17 18
6 4 1 6 9 10 12 11 5 3 4 5 1 2 3 3 4 6 5 4 3 2 3 3 3 4 4 4 4 4 5 6 6 7 10 14 18 19 21 24 22 15 17 23 25 27 28 30 32 33 35 35 33 32 31 31 30 29 30 32 33 32 28 26 25 22 20 19 19 19 21 22 24 25 27 28 28 27 27 28 28 29 30 29 28 27 28 27 27 25 23 22 21 21 21 19 18
8 5 4 7 9 10 11 8 5 3 2 5 4 1 2 4 2 4 5 4 4 2 2 2 3 4 4 4 3 4 5 6 6 7 9 14 17 18 20 23 18 12 16 23 24 26 28 29 30 32 35 35 32 31 31 31 32 32 32 32 32 30 26 26 26 23 21 20 19 19 21 24 25 27 28 29 29 28 27 28 29 30 31 31 30 29 29 28 27 27 23 21 21 21 21 21 21
8 6 5 6 7 8 6 4 4 3 1 4 7 1 1 4 2 4 5 4 4 2 2 2 3 3 3 4 4 4 5 5 6 7 10 14 16 18 21 20 12 10 17 22 24 27 28 28 28 31 34 34 31 30 31 34 34 30 29 30 31 30 31 32 30 24 19 18 18 20 22 25 26 28 30 29 28 27 26 27 28 29 31 31 31 29 29 28 26 24 23 21 21 21 21 21 21
6 6 6 7 6 3 2 2 2 3 1 5 6 1 1 3 2 4 3 2 3 3 1 1 2 3 3 4 4 4 4 4 5 7 11 15 15 17 19 13 9 14 19 22 25 28 27 26 27 30 33 33 30 30 33 35 32 29 30 33 34 34 36 35 27 20 18 18 19 21 23 25 27 30 30 28 27 25 24 25 26 28 30 30 31 30 28 26 23 22 22 22 21 21 21 22 23
4 4 4 7 7 3 3 3 4 4 6 6 5 3 2 5 3 2 3 3 6 4 1 2 3 3 4 4 4 4 4 5 6 6 9 13 13 16 17 11 11 17 19 22 26 27 25 24 26 30 32 31 29 32 36 35 31 31 34 36 36 36 37 33 23 17 18 18 20 23 24 26 28 30 30 28 25 21 22 25 28 30 31 30 30 28 26 25 25 24 23 22 22 21 21 22 23
6 4 4 6 5 5 5 6 4 3 7 7 4 5 4 7 3 5 6 4 4 3 3 1 2 3 4 5 5 5 5 6 7 6 7 9 11 16 18 14 14 17 19 23 26 26 24 24 26 29 30 29 30 35 38 36 33 34 36 37 36 34 33 26 17 16 19 20 22 24 24 25 28 30 30 25 20 20 24 29 31 32 32 31 30 29 29 29 29 26 24 24 24 24 23 23 23
7 4 2 3 3 5 7 6 4 6 7 6 4 5 4 7 2 6 7 5 5 4 4 2 1 2 4 6 5 6 7 7 7 7 7 9 13 19 20 18 17 17 20 23 26 25 24 24 26 28 28 29 33 38 38 35 34 36 38 37 34 33 31 25 20 20 21 21 23 24 25 26 28 30 27 21 20 23 27 30 32 34 34 33 32 32 32 32 30 28 26 25 26 26 26 24 24
5 1 1 1 2 3 6 5 4 9 10 7 6 4 4 7 1 7 6 6 6 4 4 2 2 3 4 6 6 7 8 7 7 8 10 14 18 21 22 21 18 16 20 23 25 25 24 24 25 27 29 32 37 39 36 33 34 36 36 34 32 31 29 26 22 21 21 23 26 27 28 27 28 30 26 23 24 26 29 32 34 35 34 33 32 33 33 32 31 30 28 27 26 27 27 26 25
3 1 2 1 1 2 4 4 4 7 9 7 4 3 4 2 1 6 6 6 4 1 1 2 4 4 5 6 7 9 9 9 10 11 12 16 21 22 23 22 19 16 20 23 25 25 24 24 25 27 30 34 37 37 34 32 33 34 33 33 33 32 32 29 26 25 27 29 30 29 29 29 31 31 27 26 27 29 32 35 35 33 32 32 32 32 33 32 31 30 30 28 26 26 27 26 26
3 2 3 4 3 4 2 5 3 3 7 5 2 4 3 1 1 5 4 1 3 6 5 4 6 6 8 10 11 12 12 12 13 12 12 16 20 22 24 22 18 17 21 23 24 24 22 23 25 28 32 35 37 35 31 31 32 32 33 36 37 35 33 32 29 29 29 29 28 28 29 30 29 26 25 27 30 32 34 32 30 29 30 31 32 32 32 32 31 30 30 29 27 26 26 26 26
3 3 5 4 1 3 2 3 4 4 7 5 4 8 8 5 3 3 1 8 12 11 10 9 9 9 12 12 12 12 12 12 14 14 14 17 19 22 24 21 17 19 23 24 24 22 21 24 27 30 33 35 36 32 28 29 32 34 35 34 32 28 26 28 29 31 31 30 30 30 30 27 25 25 27 28 30 31 30 26 26 27 29 30 31 31 32 31 30 30 29 29 28 25 24 25 25
2 3 3 3 4 5 2 1 4 6 7 7 10 11 8 6 4 1 5 11 11 11 10 10 12 12 12 12 11 12 13 12 12 13 13 15 18 21 22 19 17 22 26 25 24 22 23 26 29 30 32 35 34 29 26 29 33 34 30 26 24 24 27 31 33 34 33 31 30 28 26 24 25 26 25 24 25 25 23 23 25 27 29 29 27 28 29 30 29 28 28 28 26 24 23 24 25
3 3 3 3 2 4 2 1 2 3 6 8 10 11 6 3 2 1 6 8 7 9 10 9 12 13 12 12 12 13 13 12 12 12 11 13 18 20 19 17 19 26 27 25 23 23 25 28 29 30 33 34 30 25 27 31 33 30 24 20 22 27 32 34 33 30 28 25 24 23 23 24 25 25 23 24 25 25 24 25 26 26 27 27 25 24 26 27 28 27 26 26 25 23 23 25 25
5 5 5 4 3 3 4 2 2 1 3 6 9 11 6 2 1 1 5 9 8 10 11 10 11 13 13 13 14 14 14 13 13 12 11 13 16 17 16 19 25 28 25 22 23 25 27 28 29 31 34 30 24 23 28 30 28 25 20 19 23 28 31 30 27 24 24 23 23 24 26 28 28 26 25 25 25 25 28 28 27 25 25 26 25 22 23 26 26 25 25 25 25 25 25 25 25
2 3 3 3 2 3 6 6 1 2 1 4 8 11 7 2 1 3 6 13 12 10 11 11 13 15 14 14 15 16 15 15 15 13 12 13 13 15 18 23 27 25 21 21 23 25 27 28 30 32 33 27 22 25 29 28 25 22 21 22 25 27 28 26 24 24 25 25 26 27 27 28 28 26 24 24 24 26 28 28 26 25 24 23 21 19 18 21 24 24 23 23 24 25 25 24 23
Wind_Direction
274 290 299 227 176 152 164 55 48 312 97 250 253 186 263 244 171 214 247 255 192 253 202 118 63 99 95 123 130 110 55 61 121 288 173 346 336 346 357 355 358 355 348 326 246 216 211 200 195 206 205 199 200 201 217 223 225 216 207 210 214 218 218 227 232 228 215 206 204 202 192 189 208 212 207 205 207 212 213 212 209 212 217 225 221 206 198 196 194 190 186 185 186 198 192 172 75
280 261 186 177 158 143 203 78 103 310 8 256 251 174 260 314 150 218 215 204 193 286 91 88 65 64 78 105 109 95 47 67 74 329 208 356 347 350 359 1 1 355 354 323 235 216 211 206 203 212 208 200 199 198 207 222 230 223 222 220 231 237 224 223 227 229 224 218 209 198 197 199 209 216 217 212 210 214 218 219 216 220 229 231 228 218 204 198 193 185 183 187 190 195 200 218 177
183 198 181 166 148 86 104 53 102 235 238 253 269 226 266 229 228 228 221 227 263 316 72 93 71 55 66 73 37 72 56 65 32 359 320 1 356 344 356 6 4 355 358 348 227 224 215 215 211 218 214 204 201 199 199 211 228 227 234 230 240 252 242 229 225 230 232 231 219 204 203 209 212 215 221 219 215 217 221 226 222 225 233 231 229 227 215 205 197 187 184 185 185 185 184 182 171
158 173 193 168 110 16 80 54 181 159 230 252 290 266 256 213 240 251 272 297 300 338 76 98 59 3 75 72 12 57 35 328 5 6 337 360 357 346 3 18 10 4 7 51 223 224 223 231 222 224 220 217 206 200 201 201 217 227 240 239 243 258 263 250 239 242 241 239 229 220 210 211 219 219 221 217 218 222 225 233 231 230 233 231 229 231 224 214 205 194 185 183 182 174 169 169 155
175 159 182 147 100 341 120 132 127 153 223 187 235 268 250 225 252 296 326 337 8 35 94 108 79 358 64 70 24 52 338 299 343 5 359 353 1 7 24 30 23 23 26 41 230 226 230 233 227 228 220 224 211 200 208 202 208 218 235 245 247 263 271 262 251 250 244 242 237 230 218 215 224 226 228 220 219 224 228 234 236 231 231 233 232 234 228 217 212 202 187 180 185 174 168 173 161
131 135 118 75 115 163 128 235 213 231 234 174 200 271 277 246 236 201 20 30 57 48 64 70 97 105 65 47 65 82 359 338 328 2 5 357 12 26 36 38 39 39 38 43 9 272 265 245 236 244 232 228 213 204 211 207 216 222 232 243 249 263 269 271 263 258 254 251 245 238 231 228 224 224 229 227 227 228 232 234 233 228 230 237 236 238 230 220 217 206 192 183 187 181 174 178 174
94 113 28 51 317 21 120 218 222 240 250 181 190 261 289 293 174 125 44 40 64 30 43 57 95 107 78 96 93 50 25 23 0 10 17 18 29 38 43 46 48 47 46 49 44 29 343 311 315 308 264 235 229 236 231 228 230 235 240 239 249 256 264 273 272 269 267 263 254 248 244 238 227 224 224 229 235 232 237 237 233 228 230 238 240 243 234 223 221 209 199 190 187 184 177 178 169
88 98 26 105 266 353 119 248 244 217 248 221 204 247 288 265 185 102 40 70 104 22 27 8 36 83 60 77 100 30 25 32 35 32 34 39 43 46 48 51 52 51 50 52 51 46 37 23 24 26 21 262 278 277 268 270 245 254 259 239 249 257 264 270 272 275 272 273 269 259 253 248 239 236 228 227 236 236 240 240 240 236 231 237 244 245 237 226 225 214 205 195 187 185 178 180 166
52 60 46 108 215 285 339 288 281 244 257 316 289 269 320 300 120 85 91 41 46 57 24 325 338 97 114 67 86 29 20 30 47 45 46 47 48 53 52 53 54 53 53 53 52 51 48 41 39 40 39 38 355 327 311 307 270 277 278 252 251 264 269 268 272 276 272 277 279 270 264 257 247 244 239 232 232 233 238 239 243 244 237 238 246 246 241 233 226 217 210 204 190 186 178 180 170
34 26 151 137 118 286 308 288 279 266 254 309 287 270 314 340 60 67 94 69 8 89 5 326 36 93 116 80 60 26 16 29 51 50 50 52 53 58 57 56 56 56 55 53 53 52 52 50 49 46 43 43 34 27 0 336 289 281 293 273 255 267 277 276 279 279 278 277 277 275 276 267 254 252 248 241 234 230 232 237 240 244 244 241 245 245 245 247 236 223 214 210 198 189 179 183 179
32 344 113 115 45 273 267 254 270 258 277 309 294 294 298 73 70 51 65 110 14 54 346 352 68 95 89 86 17 20 31 42 51 49 52 56 59 60 59 59 58 58 57 55 55 53 53 52 52 51 48 46 43 39 31 23 5 335 336 320 288 284 280 284 289 287 287 282 280 280 283 277 266 263 255 248 243 236 230 233 236 239 244 243 246 248 250 255 244 229 218 210 205 197 182 186 185
70 320 69 107 192 232 224 217 262 260 309 318 311 336 38 73 71 80 86 138 9 38 19 5 122 131 90 105 181 19 36 47 52 53 59 62 62 61 61 61 60 60 58 57 57 54 53 52 52 52 50 49 48 44 38 33 24 15 9 1 354 338 299 292 299 299 296 290 288 283 285 288 280 275 263 254 251 244 236 232 233 236 243 243 249 254 255 257 243 229 223 214 212 208 190 185 188
118 156 90 150 203 193 193 196 262 272 321 287 206 322 20 68 98 168 137 127 9 97 38 351 185 107 103 157 85 14 25 42 56 58 62 64 63 62 62 60 60 59 58 58 57 54 53 52 52 53 52 50 49 48 44 39 31 24 18 10 7 4 343 316 312 309 305 301 300 294 292 291 287 286 272 262 257 251 244 238 233 235 241 241 248 255 257 258 247 235 233 225 219 218 203 188 191
155 152 116 207 261 158 183 181 268 211 257 264 242 322 25 65 169 174 128 123 342 111 8 348 104 93 119 133 44 347 11 39 64 66 64 64 63 62 60 58 57 56 55 55 53 51 50 50 51 52 52 51 49 49 49 46 40 34 28 20 13 10 2 346 332 317 309 307 305 302 299 293 290 291 286 274 264 256 249 246 242 237 236 238 244 250 255 256 252 245 243 235 223 221 214 198 194
161 132 91 148 318 317 215 225 214 174 231 257 232 70 73 49 55 69 58 119 350 12 332 9 30 32 167 119 104 340 25 57 77 73 68 65 62 61 58 55 53 51 50 49 48 46 45 45 46 47 47 47 46 46 46 45 42 38 36 31 26 20 14 6 356 340 322 312 305 306 304 299 297 292 291 285 271 263 253 247 246 242 237 237 239 242 248 250 252 252 246 238 228 224 222 213 202
116 104 68 32 278 299 246 225 119 134 241 241 244 68 80 12 32 70 333 85 84 1 19 12 15 74 81 95 120 75 71 87 86 75 70 64 60 58 54 52 50 48 46 44 43 41 40 39 39 40 39 39 40 40 39 39 36 35 35 32 29 26 22 18 13 5 348 332 320 318 315 308 307 297 291 290 283 272 258 249 248 247 243 239 235 237 245 247 251 253 248 241 234 230 228 225 212
57 79 61 317 239 232 223 198 166 167 247 248 269 268 110 343 12 107 10 61 84 20 42 40 30 72 82 96 106 91 88 90 82 73 66 60 54 52 48 46 46 44 43 41 40 37 36 35 33 33 32 32 32 33 32 31 29 28 29 26 24 23 22 21 18 13 6 357 345 335 334 329 323 312 298 294 293 284 263 253 251 251 249 244 234 233 243 248 250 249 250 246 239 235 231 227 217
54 82 102 264 212 202 193 188 198 168 225 237 242 179 135 170 220 146 54 50 73 61 52 58 58 66 87 100 97 90 87 80 75 71 65 58 53 50 44 41 42 42 40 39 37 35 34 32 29 28 26 25 26 26 26 25 23 22 22 20 18 16 16 19 18 15 12 8 1 353 352 350 343 332 319 305 300 296 277 258 252 251 251 247 239 236 239 245 248 247 250 249 243 240 233 227 225
90 124 135 234 207 208 202 185 194 179 209 223 221 117 145 178 173 146 92 100 107 85 64 67 82 80 87 93 91 89 85 78 74 72 67 61 57 53 47 42 42 41 40 39 36 34 33 31 29 25 23 21 20 19 19 18 18 18 17 14 13 11 10 13 13 14 13 11 7 0 358 357 351 345 339 327 312 305 295 278 263 255 251 246 243 240 238 241 246 247 250 251 247 241 234 230 232
146 139 195 242 213 220 228 193 201 212 190 177 181 151 160 193 164 154 146 165 167 138 155 133 130 137 119 104 94 90 84 81 77 74 71 66 61 57 51 45 42 42 41 41 38 35 33 31 28 24 22 19 17 15 14 13 12 13 12 10 8 5 4 7 7 7 9 11 10 5 360 355 351 347 345 341 332 318 306 297 282 268 255 245 242 239 236 236 243 248 249 250 250 242 232 231 234
139 137 201 230 188 214 235 202 206 213 170 157 166 153 168 202 161 156 144 145 226 211 193 170 162 157 143 132 106 96 88 83 77 74 72 67 63 57 53 47 44 43 43 42 39 35 32 29 25 21 19 17 15 14 13 9 8 10 9 8 5 2 359 358 359 359 2 5 6 4 360 355 351 348 344 343 342 335 324 314 301 285 266 249 242 239 236 236 241 246 246 247 252 249 236 231 232
101 257 219 207 150 211 244 197 193 176 132 122 136 164 175 150 135 167 158 170 231 216 195 168 154 152 143 135 117 99 88 83 77 74 71 67 63 58 52 45 41 39 41 42 38 34 30 25 19 15 14 14 14 13 10 8 7 8 7 6 4 1 356 353 351 351 354 357 359 358 356 353 350 349 348 344 341 339 335 331 323 308 286 262 247 240 238 240 242 239 240 246 251 253 244 233 231
228 284 279 231 180 221 251 175 192 149 119 145 167 182 136 121 244 193 176 207 250 186 151 144 140 142 132 123 115 101 91 86 82 79 76 72 65 58 52 44 38 34 36 39 34 31 28 21 14 12 12 11 10 9 7 6 7 5 3 2 0 359 355 350 347 344 343 347 352 352 350 349 346 343 344 346 343 340 337 335 332 326 313 289 267 252 242 241 242 237 235 242 247 250 248 236 231
89 277 312 282 205 235 276 94 197 153 153 204 168 128 137 165 216 136 201 238 38 93 119 125 129 129 120 112 110 104 99 93 87 85 80 74 68 59 50 43 38 31 30 31 28 27 23 15 9 10 13 11 8 5 2 2 2 359 357 356 355 356 353 347 342 339 336 338 342 345 344 342 343 341 339 340 341 341 338 334 332 328 324 312 296 278 261 248 240 235 232 235 240 244 246 238 231
61 230 294 310 291 293 330 10 342 182 207 190 121 143 195 190 150 134 210 162 103 111 111 116 119 114 111 107 108 105 98 93 88 83 77 71 66 57 45 38 35 30 26 24 22 21 15 7 5 10 13 12 8 1 358 358 355 352 352 351 350 351 350 344 336 332 331 330 332 336 338 336 335 336 337 334 332 334 333 331 331 329 324 319 314 300 285 269 251 238 232 232 234 238 241 237 231
207 227 283 345 325 319 348 339 305 250 260 126 157 253 337 347 214 228 183 147 128 118 111 118 116 107 108 106 105 104 97 93 87 80 73 61 54 50 42 36 33 30 26 23 19 14 8 3 5 10 10 10 6 358 356 354 352 350 348 347 346 346 346 340 332 326 325 322 322 325 329 328 326 325 327 327 326 327 328 328 326 326 324 320 319 312 301 289 270 253 239 233 231 232 235 235 230
239 264 253 42 333 310 360 344 333 318 256 187 209 293 340 330 347 283 191 148 137 120 118 121 113 109 109 104 100 100 96 95 90 79 64 50 45 44 40 35 32 28 24 21 16 10 5 3 6 7 4 2 357 353 352 350 349 348 346 345 343 342 341 336 329 322 319 317 313 314 317 318 317 315 314 316 318 319 322 325 325 322 321 321 320 315 310 302 287 271 253 240 233 229 231 232 230
338 320 248 350 356 348 16 10 354 344 299 175 164 154 328 343 14 222 185 152 147 129 127 117 110 110 105 103 96 94 94 90 80 68 56 47 45 43 39 34 30 26 23 19 14 9 4 2 1 359 355 351 349 347 346 345 345 343 342 341 340 338 337 332 326 319 316 314 309 306 309 310 309 309 308 306 308 311 314 318 323 324 320 317 319 316 311 305 296 282 267 254 244 234 228 229 229
355 35 63 322 360 7 11 5 336 2 346 190 144 47 294 255 250 223 153 148 146 125 124 114 107 108 104 103 98 98 93 83 71 62 56 52 47 42 39 34 29 25 21 16 11 7 2 358 355 352 349 347 345 344 342 342 341 340 339 338 337 335 334 329 324 320 316 314 307 301 303 305 304 305 306 304 303 304 307 310 315 322 322 316 312 313 312 307 300 290 276 262 253 244 232 227 225
354 29 65 344 1 325 325 6 332 24 41 251 58 320 279 236 261 246 156 154 139 123 120 113 111 109 109 111 107 96 78 74 70 65 60 53 47 43 39 34 30 25 18 14 9 4 358 352 350 348 346 345 344 342 341 340 338 338 336 335 334 333 331 327 324 321 317 315 308 300 303 305 302 302 302 302 303 302 303 305 310 316 322 320 311 307 309 310 305 295 284 267 254 246 237 229 223
360 359 31 41 9 287 313 350 341 19 353 11 19 298 266 254 285 277 174 162 139 128 119 116 116 111 116 114 101 82 70 74 73 70 61 52 47 41 36 29 26 21 15 11 5 0 354 349 347 346 345 344 343 339 337 336 335 335 333 332 332 331 329 325 323 321 317 316 310 303 304 304 300 299 299 301 303 304 303 303 306 313 318 320 316 309 306 307 308 300 290 273 256 246 239 232 226
25 7 338 345 3 281 314 330 28 43 287 14 28 284 271 255 277 281 173 157 129 121 119 120 116 116 120 101 91 84 77 76 71 68 58 50 44 35 30 23 19 16 11 6 1 357 354 350 345 344 345 344 342 337 332 333 333 333 333 332 331 329 328 325 322 319 316 315 312 306 303 303 299 296 296 299 302 302 303 302 304 310 314 317 317 314 307 304 307 305 297 281 261 248 240 235 230
10 38 304 293 318 312 318 312 91 56 307 354 19 281 289 278 288 322 147 138 119 118 120 121 119 118 110 90 89 86 78 70 63 62 52 44 38 29 25 18 13 11 6 2 359 355 354 352 345 343 344 341 337 331 327 329 332 333 332 331 330 330 329 324 319 318 318 318 318 314 308 306 302 299 296 296 298 298 299 301 303 307 310 312 316 316 310 305 305 305 301 292 273 254 243 237 232
326 22 324 273 289 300 315 305 309 12 359 326 342 235 270 293 323 337 116 129 118 122 125 124 122 109 96 90 89 83 78 72 59 56 47 38 31 23 18 12 9 7 2 359 356 352 352 351 344 339 337 334 330 325 323 327 331 333 332 329 328 327 326 322 317 315 318 320 320 318 314 311 307 304 300 296 297 296 295 297 300 304 306 308 312 313 311 305 303 305 301 298 287 265 248 239 233
278 306 306 289 288 256 282 291 301 17 356 266 314 294 288 318 342 341 52 126 117 122 124 120 112 97 93 90 91 90 83 83 69 56 45 32 23 17 12 7 4 3 1 358 354 350 348 345 340 335 332 331 327 322 325 330 333 333 330 328 325 322 319 316 314 311 309 308 309 311 312 310 309 307 303 300 300 297 294 294 295 299 302 306 308 308 308 304 302 305 305 303 298 283 261 244 236
234 268 255 270 290 266 261 270 279 10 336 249 328 312 318 347 352 356 57 113 112 116 111 101 93 85 90 90 94 101 91 99 77 52 40 27 19 12 7 2 360 0 360 357 354 350 346 342 337 332 331 331 327 325 330 332 333 332 328 326 323 319 316 314 313 310 307 305 304 307 307 306 305 305 302 300 300 300 298 296 295 297 297 300 304 305 302 299 300 305 309 311 306 299 286 261 243
247 281 237 259 281 281 275 274 281 19 357 294 346 331 354 5 352 13 73 102 104 109 99 88 90 87 96 101 107 117 106 119 67 37 28 22 14 9 4 0 358 359 360 358 354 349 344 339 333 331 333 330 325 328 333 332 331 329 326 323 321 320 320 317 315 313 310 308 305 304 303 301 299 299 299 299 298 299 300 299 299 298 297 296 299 303 297 290 294 300 306 311 311 304 298 288 260
359 296 263 285 284 285 288 280 294 37 13 312 11 34 21 11 0 31 83 97 96 102 100 95 101 102 117 124 132 142 122 85 40 25 19 16 9 6 3 360 360 360 359 356 352 346 341 336 331 332 334 329 325 333 335 331 329 327 324 323 321 320 320 318 315 313 311 308 307 304 299 297 295 294 295 297 299 300 301 302 301 300 299 296 296 298 291 284 289 296 301 305 309 306 296 295 281
330 325 294 298 299 299 292 267 275 52 351 314 40 78 32 11 29 42 69 94 96 99 106 109 113 112 121 136 149 139 76 15 24 20 13 9 4 3 2 0 1 358 355 352 349 344 339 336 334 335 334 331 335 340 336 331 327 325 325 325 324 320 316 314 311 310 309 306 306 304 301 298 297 297 296 298 300 301 301 303 302 301 300 298 297 294 285 282 286 292 297 298 300 304 299 294 291
296 315 302 290 311 329 303 291 299 312 256 278 59 94 81 34 56 54 54 86 101 102 104 104 105 104 96 93 96 83 55 20 19 13 5 4 2 1 1 359 355 352 351 350 347 343 342 345 345 344 342 339 340 338 334 332 326 322 324 325 323 318 313 310 308 306 305 304 306 308 309 309 307 307 307 307 306 303 302 302 302 302 301 300 296 289 280 280 285 287 289 291 292 293 296 296 296
302 285 250 274 302 275 263 290 305 316 296 239 77 86 139 102 89 90 81 87 99 101 96 88 78 75 63 34 30 43 37 21 16 6 359 1 359 358 357 353 347 347 350 350 350 351 353 354 352 349 345 340 337 334 332 331 323 317 320 322 321 316 311 309 306 305 304 305 309 310 310 311 312 314 313 313 311 308 305 300 299 299 299 299 294 285 279 279 282 282 279 283 286 282 283 287 291
319 279 222 243 291 281 275 297 314 329 321 346 51 10 277 176 171 171 146 122 110 103 93 87 66 54 46 25 28 30 24 19 12 3 356 357 356 352 350 345 342 344 351 356 359 359 355 351 348 344 340 335 331 329 329 328 321 313 315 319 317 312 307 304 300 299 302 305 306 306 305 304 305 309 309 309 309 309 307 302 298 298 298 297 293 286 282 281 279 277 275 277 280 277 274 277 280
319 262 208 249 288 288 294 306 315 318 294 309 35 275 254 216 201 205 189 149 130 107 90 90 67 51 39 22 29 26 17 11 4 358 353 356 353 346 343 339 336 342 357 2 360 354 349 345 343 340 336 330 326 323 324 324 318 312 314 317 314 307 299 294 292 292 296 301 303 305 308 308 308 309 309 309 307 304 304 304 300 299 299 297 294 290 285 282 277 274 274 274 275 274 269 266 272
285 249 26 313 305 297 297 301 285 254 291 309 338 159 235 251 202 192 182 155 149 117 81 86 65 47 29 16 18 23 16 1 357 354 353 353 347 341 338 331 329 345 3 358 352 347 344 341 339 337 335 329 324 322 323 323 319 315 316 315 309 301 294 291 291 290 291 296 301 306 310 312 313 314 313 311 308 302 297 297 297 296 297 296 294 291 287 283 277 271 271 271 270 270 267 261 265
270 282 321 296 288 285 287 298 288 282 348 309 300 95 265 270 168 174 191 173 178 162 79 47 47 41 21 2 353 12 12 359 356 351 347 343 337 335 330 323 326 350 354 347 345 343 339 337 335 335 334 329 324 323 324 324 321 317 316 314 307 300 298 299 295 287 288 294 299 304 309 313 314 315 314 311 308 302 296 293 293 293 292 293 292 290 287 284 276 268 266 267 267 265 265 263 260
281 308 312 282 270 271 283 317 309 317 71 267 278 2 307 266 172 177 213 211 199 173 110 34 25 20 5 347 333 355 1 352 350 341 335 331 328 328 324 319 324 339 338 339 341 339 335 333 332 333 332 328 323 323 326 324 320 319 320 319 312 305 305 303 292 282 285 294 299 304 308 310 312 312 311 309 305 300 297 295 293 291 290 289 290 287 284 282 276 269 268 268 266 262 262 263 261
317 346 332 313 298 289 352 20 352 350 331 253 259 276 43 280 227 176 203 187 146 136 82 356 352 352 347 333 322 339 345 336 330 324 324 323 322 323 322 315 316 324 329 335 337 335 332 329 330 331 329 326 322 323 325 321 317 319 322 320 313 307 305 297 283 276 287 295 300 304 307 308 310 310 308 305 301 296 295 296 295 293 290 288 287 283 279 279 278 277 277 273 266 262 262 263 262
3 1 340 335 327 350 20 4 22 3 309 280 264 290 304 276 265 156 148 122 119 118 65 3 335 336 340 327 316 320 319 312 309 310 317 317 315 322 324 308 303 317 325 332 334 332 328 326 327 328 326 324 322 323 323 317 313 316 317 315 310 306 303 292 277 280 291 294 300 302 303 305 307 308 305 299 295 292 293 297 299 297 292 287 285 281 278 282 284 282 279 274 269 265 264 262 259
360 352 6 358 339 347 346 334 343 309 288 283 293 339 306 270 265 139 149 142 131 141 129 89 323 315 324 316 303 304 303 301 306 305 305 307 312 325 327 305 294 310 321 328 331 329 324 323 325 326 324 323 322 322 319 312 311 314 314 311 306 304 304 295 283 288 292 294 298 299 300 303 305 305 300 292 286 289 293 297 300 299 293 286 281 279 280 283 284 280 274 271 270 267 264 261 257
339 337 4 360 357 341 322 319 312 288 283 274 306 351 305 283 293 141 151 148 151 162 149 141 288 273 297 299 286 295 301 296 297 294 301 317 321 325 322 300 287 303 319 326 329 326 322 322 324 324 322 322 322 320 315 310 312 314 313 309 305 303 299 292 286 288 291 294 297 297 298 300 301 299 291 281 283 291 293 295 296 295 292 285 279 277 279 281 281 277 272 269 268 267 264 260 256
309 234 171 12 26 326 301 300 298 298 300 296 316 323 260 285 287 147 146 147 154 154 159 184 285 265 274 285 280 292 301 298 305 314 322 325 320 319 315 296 281 298 319 325 326 324 322 322 323 323 322 321 320 317 313 311 313 314 311 309 307 304 297 292 292 293 296 301 300 298 296 296 297 294 284 280 288 293 293 293 293 290 288 284 280 277 276 277 278 276 272 269 267 266 262 256 255
285 142 87 359 308 239 264 270 252 280 295 293 302 264 227 293 134 146 141 151 152 85 184 255 316 300 289 303 308 317 322 325 331 330 325 319 312 312 310 294 280 299 319 323 324 323 321 321 323 322 321 320 318 315 311 311 314 313 311 310 309 306 303 301 300 298 300 301 299 296 295 294 292 287 281 284 291 293 294 293 290 287 286 283 279 275 273 274 274 274 272 269 264 262 258 254 254
324 9 318 277 234 168 226 292 278 294 297 281 278 290 292 4 178 174 163 165 355 354 340 328 329 322 325 332 333 333 333 331 330 323 313 311 307 307 308 295 282 302 319 322 322 321 319 321 322 321 319 318 316 312 309 311 313 311 309 308 305 302 302 303 303 302 303 302 300 299 297 294 289 286 288 292 295 295 293 290 286 285 286 285 279 273 271 271 271 271 269 266 262 259 257 255 254
357 321 287 282 300 117 113 307 312 310 290 281 297 299 303 317 287 199 325 343 345 345 346 346 342 340 338 334 329 326 326 322 318 313 307 306 303 305 308 296 288 309 320 320 319 319 319 321 321 320 319 317 314 310 309 312 313 309 304 302 301 302 305 309 309 308 307 303 301 299 294 290 291 295 296 297 298 296 291 287 286 287 289 287 280 271 268 269 269 268 266 264 261 258 255 255 254
340 285 302 1 342 338 19 320 301 301 290 292 298 297 299 300 293 26 348 337 335 335 345 346 340 340 332 323 321 319 319 315 309 306 305 303 300 304 305 297 299 316 318 317 318 319 321 321 320 318 317 315 311 308 309 313 313 308 300 298 305 312 315 313 309 304 301 299 299 297 292 291 295 297 296 297 300 298 294 293 293 291 293 294 285 271 266 267 266 265 263 261 261 258 254 253 253
348 335 347 20 330 307 312 248 280 296 292 295 299 303 304 274 256 28 332 322 322 333 343 341 331 331 324 321 324 319 316 311 305 303 300 299 300 303 304 304 312 317 315 316 321 322 322 321 320 319 318 314 309 308 312 313 312 307 301 305 314 316 315 311 305 301 300 302 306 306 304 305 304 302 299 297 297 296 296 299 297 292 293 298 295 280 270 268 264 261 259 258 258 258 254 254 254
351 357 345 345 339 323 318 295 147 144 288 298 302 303 306 312 175 178 310 329 344 344 341 334 326 325 323 324 323 317 313 309 305 303 301 302 304 308 312 316 316 314 314 320 324 324 323 322 321 321 319 313 308 313 317 315 312 308 305 309 314 314 312 307 304 308 310 311 311 311 310 309 306 303 299 294 291 292 294 295 293 292 292 296 298 289 275 268 264 260 259 257 255 255 253 253 252
337 331 327 327 311 345 340 313 287 125 233 276 292 296 302 336 167 198 321 342 353 349 338 330 325 324 324 323 319 314 310 307 307 309 310 312 316 321 322 318 315 314 319 326 327 327 326 324 323 322 317 311 311 319 319 315 312 311 310 312 312 311 308 304 306 313 313 311 309 308 308 306 302 299 296 292 289 291 293 294 291 288 290 294 300 302 289 273 264 259 259 258 254 251 248 246 246